Regional Weather Roundup
Issued by NWS

Home | Current Version | Previous Version | Graphics & Text | Print | Product List | Glossary On
Versions: 1 2 3 4 5 6 7 8 9 10 11 12 13 14 15 16 17 18 19 20 21 22 23 24 25 26 27 28 29 30 31 32 33 34 35 36 37 38 39 40 41 42 43 44 45 46 47 48 49 50
000
ASUS43 KLOT 060103
RWRIL

ILLINOIS REGIONAL WEATHER ROUNDUP
NATIONAL WEATHER SERVICE CHICAGO/ROMEOVILLE IL
700 PM CST FRI FEB 05 2016

NOTE: "FAIR" INDICATES FEW OR NO CLOUDS BELOW 12,000 FEET WITH NO
SIGNIFICANT WEATHER AND/OR OBSTRUCTIONS TO VISIBILITY.

* THESE STATIONS ARE NOT UNDER NWS QUALITY CONTROL. THEY ALSO MAY NOT
  REPORT WEATHER SUCH AS PRECIPITATION OR FOG.

ILZ001-002-007-009-015-016-024-060200-
NORTHWEST ILLINOIS

CITY           SKY/WX    TMP DP  RH WIND       PRES   REMARKS
MOLINE         CLOUDY    30  21  69 SE3       30.34F
STERLING*      CLOUDY    30  21  69 CALM      30.33S
$$

ILZ003-004-008-010-011-017-018-060200-
NORTH CENTRAL ILLINOIS

CITY           SKY/WX    TMP DP  RH WIND       PRES   REMARKS
ROCKFORD       CLOUDY    29  19  66 SW6       30.36R WCI  23
FREEPORT*      CLOUDY    28  22  78 SW6       30.35S WCI  22
DE KALB*       CLOUDY    29  22  74 CALM      30.34S
$$

ILZ005-006-012>014-019>023-060200-
NORTHEAST ILLINOIS

CITY           SKY/WX    TMP DP  RH WIND       PRES   REMARKS
CHICAGO-OHARE  CLOUDY    30  21  69 SW5       30.33F WCI  25
CHICAGO-MIDWAY CLOUDY    31  19  61 W3        30.34F
AURORA         CLOUDY    30  23  75 SW3       30.35S
LANSING*       CLOUDY    29  22  75 CALM      30.35F
WAUKEGAN       CLOUDY    29  19  66 CALM      30.32F
DUPAGE AIRPORT CLOUDY    29  20  69 SW3       30.33F
WHEELING       CLOUDY    30  20  66 SW5       30.35F WCI  25
NORTHERLY ISL    N/A     30  24  78 E3          N/A
$$

LMZ740>746-060200-
SOUTHERN LAKE MICHIGAN

STATION/POSITION SKY/WX   TEMP    WIND        PRES    VSBY  WAVE
                          AIR SEA DIR/SP/G                  HT/PER
                          (F)     (DEG/KT/KT) (MB)    (MI)  (FT/S)
HARRISON CRIB              31     110/  3/  4   N/A
BURNHAM HARBOR             30     110/  3/  6   N/A
BURNS HARBOR               30     300/  1/  2 1028.8S
MICHIGAN CITY              30     280/  1/  2   N/A
$$

ILZ025>027-034>036-040-047-049-050-058-095>099-060200-
WEST-CENTRAL ILLINOIS

CITY           SKY/WX    TMP DP  RH WIND       PRES   REMARKS
QUINCY         CLOUDY    31  20  63 CALM      30.35S
MACOMB*        PTCLDY    29  25  85 SE3       30.37F
$$

ILZ028>032-037-038-041>044-048-051>054-059>061-060200-
CENTRAL ILLINOIS

CITY           SKY/WX    TMP DP  RH WIND       PRES   REMARKS
BLOOMINGTON    PTCLDY    26  23  88 CALM      30.38R
DECATUR        PTCLDY    28  22  78 CALM      30.38R
PEORIA         CLEAR     27  19  72 E3        30.38F
LINCOLN*       CLEAR     28  25  90 CALM      30.39S
SPRINGFIELD    CLEAR     27  20  75 CALM      30.39R
TAYLORVILLE    NOT AVBL
$$

ILZ033-039-045-046-055>057-062-063-060200-
EAST-CENTRAL ILLINOIS

CITY           SKY/WX    TMP DP  RH WIND       PRES   REMARKS
CHAMPAIGN      PTCLDY    28  23  81 CALM      30.37S
MATTOON        CLEAR     27  22  81 CALM      30.37S
$$

ILZ079-100>102-060200-
SOUTHWEST ILLINOIS

CITY           SKY/WX    TMP DP  RH WIND       PRES   REMARKS
ALTON          PTCLDY    32  21  64 S5        30.37S WCI  27
BELLEVILLE     CLEAR     33  21  61 NE2       30.36S
CAHOKIA*       CLEAR     34  18  52 NE5       30.37R WCI  30
SPARTA*        CLEAR     33  25  73 CALM      30.38S
$$

ILZ064>066-069>071-074>076-080>082-084>086-088>090-092>094-060200-
SOUTH-CENTRAL ILLINOIS

CITY           SKY/WX    TMP DP  RH WIND       PRES   REMARKS
CARBONDALE     CLEAR     33  22  63 N3        30.37R
MARION         CLEAR     32  27  80 CALM      30.37S
MT. VERNON     CLEAR     27  16  63 CALM      30.38S
CENTRALIA*     CLEAR     31  24  73 CALM      30.37F
SALEM*         CLEAR     31  20  64 CALM      30.38S
$$

ILZ067-068-072-073-078-083-087-091-060200-
SOUTHEAST ILLINOIS

CITY           SKY/WX    TMP DP  RH WIND       PRES   REMARKS
LAWRENCEVILLE  CLEAR     29  20  69 NE5       30.38F WCI  24
HARRISBURG*    CLEAR     34  28  77 CALM      30.37F
ROBINSON*      CLEAR     29  23  78 N7        30.39F WCI  22
CARMI*         CLEAR     32  25  74 NW5       30.37F WCI  27
$$

ABBREVIATIONS USED IN REMARKS
   TC - TEMPERATURE IN CELSIUS
  WCI - WIND CHILL INDEX
   HX - HEAT INDEX
  VSB - VISIBILITY
$$




USA.gov is the U.S. government's official web portal to all federal, state and local government web resources and services.